EW4117 Weather Reports


time (UTC)temp
C
wind
direction
speed
KPH
gust
KPH
rain 1hr
cm
rain 24hr
cm
rain mn
cm
humidity
%
barometer
mb
20260507160057 12 342 14.5 22.5 0.00 0.79 0.79 58 1005.4
20260507154546 12 342 4.8 16.1 0.00 0.79 0.79 57 1005.3
20260507153051 12 352 4.8 11.3 0.00 0.79 0.79 58 1005.4
20260507151545 12 6 9.7 17.7 0.00 0.79 0.79 55 1005.3
20260507150044 12 333 3.2 8.0 0.00 0.79 0.79 56 1005.2
20260507144547 12 37 3.2 9.7 0.00 0.79 0.79 54 1005.4
20260507143042 12 347 6.4 16.1 0.00 0.79 0.79 59 1005.5
20260507141639 11 223 0.0 8.0 0.00 0.79 0.79 58 1005.7
20260507140052 11 340 6.4 14.5 0.00 0.79 0.79 63 1005.7
20260507134534 10 55 6.4 16.1 0.00 0.79 0.79 64 1005.9
20260507133035 10 3 6.4 22.5 0.00 0.79 0.79 68 1005.9
20260507131536 8 3 11.3 19.3 0.05 0.79 0.79 71 1006.1
20260507130038 7 37 8.0 22.5 0.13 0.79 0.79 71 1006.1
20260507124536 7 120 9.7 22.5 0.25 0.79 0.79 73 1006.5
20260507123033 7 108 9.7 16.1 0.51 0.79 0.79 76 1007.0
20260507121538 6 92 6.4 11.3 0.56 0.71 0.71 76 1007.2
20260507120028 7 146 1.6 9.7 0.56 0.66 0.66 75 1007.3
20260507114527 7 212 3.2 9.7 0.51 0.51 0.51 75 1007.2
20260507113033 7 143 6.4 11.3 0.28 0.28 0.28 71 1007.1
20260507111524 8 18 0.0 0.0 0.15 0.15 0.15 73 1006.7
20260507110027 8 335 0.0 9.7 0.10 0.10 0.10 69 1006.6
20260507104520 10 244 8.0 20.9 0.00 0.00 0.00 70 1006.4
20260507103018 10 321 4.8 12.9 0.00 0.00 0.00 68 1006.4
20260507101526 10 309 6.4 14.5 0.00 0.00 0.00 67 1006.3
20260507100021 10 312 1.6 14.5 0.00 0.00 0.00 69 1006.4
20260507094521 10 331 4.8 9.7 0.00 0.00 0.00 68 1006.4
20260507093032 10 306 3.2 12.9 0.00 0.00 0.00 71 1006.4
20260507091514 10 320 1.6 9.7 0.00 0.00 0.00 72 1006.5
20260507090019 9 345 6.4 12.9 0.00 0.00 0.00 72 1006.5
20260507084509 9 327 6.4 9.7 0.00 0.00 0.00 74 1006.4
20260507083010 8 347 6.4 9.7 0.00 0.00 0.00 72 1006.3
20260507081506 8 319 0.0 6.4 0.00 0.00 0.00 73 1006.3
20260507080005 8 257 0.0 4.8 0.00 0.00 0.00 74 1006.1
20260507074510 8 302 0.0 4.8 0.00 0.00 0.00 78 1006.0
20260507073002 7 20 0.0 3.2 0.00 0.00 0.00 81 1005.9
20260507071611 7 37 0.0 3.2 0.00 0.00 0.00 82 1005.9
20260507070056 7 58 0.0 3.2 0.00 0.00 0.00 82 1005.9
20260507064558 7 80 0.0 4.8 0.00 0.00 0.00 82 1005.9
20260507063058 6 15 1.6 8.0 0.00 0.00 0.00 82 1005.8
20260507061553 6 67 1.6 4.8 0.00 0.00 0.00 82 1005.7
20260507060100 6 32 0.0 3.2 0.00 0.00 0.00 81 1005.5
20260507054602 6 33 0.0 1.6 0.00 0.00 0.00 80 1005.4
20260507053049 6 39 0.0 4.8 0.00 0.00 0.00 78 1005.3
20260507051548 6 54 3.2 3.2 0.00 0.00 0.00 73 1005.2
20260507050045 6 51 3.2 4.8 0.00 0.00 0.00 70 1004.9
20260507044542 7 13 3.2 4.8 0.00 0.00 0.00 65 1004.8
20260507043040 7 351 0.0 1.6 0.00 0.00 0.00 63 1004.7
20260507041538 7 131 0.0 1.6 0.00 0.00 0.00 61 1004.6
20260507040040 7 163 0.0 3.2 0.00 0.00 0.00 60 1004.7
20260507034535 7 174 3.2 6.4 0.00 0.00 0.00 61 1004.7
20260507033036 7 175 3.2 6.4 0.00 0.00 0.00 64 1004.9
20260507031531 7 235 3.2 8.0 0.00 0.00 0.00 61 1004.9
20260507030031 7 168 1.6 3.2 0.00 0.00 0.00 62 1004.9
20260507024527 7 160 1.6 3.2 0.00 0.00 0.00 64 1004.9
20260507023028 7 148 0.0 3.2 0.00 0.00 0.00 65 1005.0
20260507021524 7 141 1.6 0.0 0.00 0.00 0.00 65 1005.0
20260507020023 7 124 0.0 0.0 0.00 0.00 0.00 67 1005.1
20260507014521 7 136 0.0 1.6 0.00 0.00 0.00 67 1005.1
20260507013023 7 171 0.0 0.0 0.00 0.00 0.00 67 1005.3
20260507011533 7 173 0.0 0.0 0.00 0.00 0.00 67 1005.5
20260507010015 8 185 1.6 8.0 0.00 0.00 0.00 66 1005.6
20260507004517 8 203 3.2 8.0 0.00 0.00 0.00 66 1005.7
20260507003012 8 166 1.6 11.3 0.00 0.00 0.00 65 1005.8
20260507001504 9 198 0.0 9.7 0.00 0.00 0.00 63 1006.0
20260507000003 9 195 0.0 0.0 0.00 0.00 0.00 61 1006.0
20260506234606 10 207 0.0 0.0 0.00 0.00 0.00 60 1006.2
20260506233058 10 255 0.0 0.0 0.00 0.00 0.00 59 1006.1
20260506231557 10 132 0.0 4.8 0.00 0.00 0.00 58 1006.3
20260506230057 10 159 6.4 9.7 0.00 0.00 0.00 58 1006.3
20260506224554 10 116 6.4 11.3 0.00 0.00 0.00 57 1006.4
20260506223053 10 163 3.2 6.4 0.00 0.00 0.00 57 1006.3
20260506221550 10 198 6.4 11.3 0.00 0.00 0.00 57 1006.5
20260506220058 10 174 8.0 12.9 0.00 0.00 0.00 56 1006.4
20260506214548 10 167 0.0 4.8 0.00 0.00 0.00 53 1006.6
20260506213046 10 200 0.0 0.0 0.00 0.00 0.00 50 1006.6
20260506211547 11 223 0.0 0.0 0.00 0.00 0.00 49 1006.5
20260506210050 11 191 0.0 1.6 0.00 0.00 0.00 48 1006.3
20260506204547 11 159 1.6 3.2 0.00 0.00 0.00 50 1006.1
20260506203126 11 214 0.0 1.6 0.00 0.00 0.00 48 1006.0
20260506201546 11 215 0.0 0.0 0.00 0.00 0.00 47 1006.0
20260506200048 11 313 0.0 0.0 0.00 0.00 0.00 47 1005.8
20260506194542 11 314 0.0 1.6 0.00 0.00 0.00 45 1005.6
20260506193041 12 331 0.0 0.0 0.00 0.00 0.00 44 1005.4
20260506191544 12 333 0.0 1.6 0.00 0.00 0.00 43 1005.2
20260506190048 12 353 3.2 6.4 0.00 0.00 0.00 43 1005.1
20260506184551 12 311 3.2 11.3 0.00 0.00 0.00 43 1005.1
20260506183039 12 316 4.8 9.7 0.00 0.00 0.00 42 1005.1
20260506181539 13 319 1.6 9.7 0.00 0.00 0.00 42 1004.9
20260506180039 13 264 4.8 12.9 0.00 0.00 0.00 40 1004.7
20260506174537 13 264 6.4 16.1 0.00 0.00 0.00 38 1004.6
20260506173047 15 300 6.4 12.9 0.00 0.00 0.00 36 1004.6
20260506171538 15 2 9.7 16.1 0.00 0.00 0.00 34 1004.5
20260506170035 15 319 6.4 16.1 0.00 0.00 0.00 34 1004.5
20260506164538 15 347 1.6 9.7 0.00 0.00 0.00 35 1004.4
20260506163053 15 359 3.2 8.0 0.00 0.00 0.00 35 1004.5
20260506161533 15 338 0.0 4.8 0.00 0.00 0.00 34 1004.5